Weather History for Provo, UT

Change the Weather History Date:

Wednesday, December 5, 2012

  Actual Average Record
Temperature  
Mean Temperature 42 °F -  
Max Temperature 48 °F 38 °F 55 °F (1986)
Min Temperature 37 °F 24 °F 0 °F (2013)
Degree Days  
Heating Degree Days 22    
Moisture  
Dew Point 37 °F    
Average Humidity 82    
Maximum Humidity 100    
Minimum Humidity 66    
Precipitation  
Precipitation 0.00 in - - ()
Sea Level Pressure  
Sea Level Pressure 30.14 in    
Wind  
Wind Speed 2 mph (SE)    
Max Wind Speed 13 mph    
Max Gust Speed -    
Visibility 10 miles    
Events      
Averages and records for this station are not official NWS values.
T = Trace of Precipitation, MM = Missing Value Source: NWS Daily Summary

Daily Weather History Graph

Daily Weather History Graph

Search for Another Location

Airport:

Trip Planner

Search our weather history database for the weather conditions in past years. The results will help you decide how hot, cold, wet, or windy it might be!

Date:

Astronomy

Dec. 05, 2012 Rise Set
Actual Time 7:34 AM MST 5:00 PM MST
Civil Twilight 7:04 AM MST 5:31 PM MST
Nautical Twilight 6:30 AM MST 6:05 PM MST
Astronomical Twilight 5:57 AM MST 6:38 PM MST
Moon 11:54 PM MST (12/5) 11:59 AM MST (12/5)
Length of Visible Light 10h 27m
Length of Day
9h 26m
Waning Gibbous, 59% of the Moon is Illuminated
Dec 5
Waning Gibbous
Dec 6
Last Quarter
Dec 13
New
Dec 19
First Quarter
Dec 28
Full

Hourly Weather History & Observations

Time (MST) Temp. Windchill Dew Point Humidity Pressure Visibility Wind Dir Wind Speed Gust Speed Precip Events Conditions
12:15 AM 42.8 °F - 35.6 °F 76% 30.22 in 10.0 mi Calm Calm - N/A   Clear
12:55 AM 42.8 °F 39.3 °F 35.6 °F 76% 30.22 in 10.0 mi SSW 5.8 mph - N/A   Clear
1:15 AM 39.2 °F - 35.6 °F 87% 30.21 in 10.0 mi Calm Calm - N/A   Clear
1:35 AM 39.2 °F - 35.6 °F 87% 30.20 in 10.0 mi Calm Calm - N/A   Clear
1:55 AM 39.2 °F - 33.8 °F 81% 30.20 in 10.0 mi Calm Calm - N/A   Partly Cloudy
2:15 AM 39.2 °F 37.0 °F 35.6 °F 87% 30.20 in 10.0 mi ENE 3.5 mph - N/A   Mostly Cloudy
2:35 AM 39.2 °F - 35.6 °F 87% 30.19 in 10.0 mi Calm Calm - N/A   Scattered Clouds
2:55 AM 39.2 °F - 35.6 °F 87% 30.19 in 10.0 mi Calm Calm - N/A   Mostly Cloudy
3:15 AM 42.8 °F 40.1 °F 35.6 °F 76% 30.18 in 10.0 mi East 4.6 mph - N/A   Overcast
3:35 AM 41.0 °F - 35.6 °F 81% 30.17 in 10.0 mi Calm Calm - N/A   Overcast
3:55 AM 42.8 °F - 33.8 °F 70% 30.17 in 10.0 mi Calm Calm - N/A   Overcast
4:15 AM 41.0 °F - 35.6 °F 81% 30.16 in 10.0 mi Calm Calm - N/A   Overcast
4:35 AM 39.2 °F - 37.4 °F 93% 30.15 in 10.0 mi Calm Calm - N/A   Overcast
4:55 AM 41.0 °F 39.0 °F 35.6 °F 81% 30.14 in 10.0 mi SSE 3.5 mph - N/A   Mostly Cloudy
5:15 AM 42.8 °F 37.5 °F 33.8 °F 70% 30.14 in 10.0 mi SE 9.2 mph - N/A   Mostly Cloudy
5:35 AM 42.8 °F 38.6 °F 33.8 °F 70% 30.13 in 10.0 mi ESE 6.9 mph - N/A   Overcast
5:55 AM 39.2 °F 34.2 °F 33.8 °F 81% 30.13 in 10.0 mi SE 6.9 mph - N/A   Mostly Cloudy
7:53 AM 42.8 °F 41.1 °F 33.8 °F 70% 30.12 in 15.0 mi SSW 3.5 mph - N/A   Mostly Cloudy
8:47 AM 44.6 °F 39.2 °F 33.8 °F 66% 30.12 in 15.0 mi SE 10.4 mph - N/A   Mostly Cloudy
9:47 AM 46.4 °F 45.2 °F 35.6 °F 66% 30.14 in 15.0 mi East 3.5 mph - N/A   Mostly Cloudy
10:48 AM 46.4 °F 44.3 °F 35.6 °F 66% 30.14 in 15.0 mi NNW 4.6 mph - N/A   Mostly Cloudy
11:50 AM 48.2 °F - 37.4 °F 66% 30.13 in 15.0 mi Variable 5.8 mph - N/A   Overcast
12:50 PM 48.2 °F - 39.2 °F 71% 30.11 in 10.0 mi Variable 5.8 mph - N/A   Overcast
1:48 PM 48.2 °F - 37.4 °F 66% 30.10 in 15.0 mi WNW 12.7 mph - N/A   Overcast
2:50 PM 44.6 °F 39.7 °F 39.2 °F 81% 30.12 in 10.0 mi NW 9.2 mph - N/A   Overcast
3:50 PM 46.4 °F 43.5 °F 39.2 °F 76% 30.12 in 10.0 mi Variable 5.8 mph - N/A   Overcast
5:50 PM 42.8 °F - 39.2 °F 87% 30.11 in 10.0 mi Calm Calm - N/A   Overcast
6:50 PM 41.0 °F - 37.4 °F 87% 30.11 in 15.0 mi Calm Calm - N/A   Mostly Cloudy
7:57 PM 42.8 °F - 39.2 °F 87% 30.11 in 15.0 mi Calm Calm - N/A   Mostly Cloudy
8:47 PM 41.0 °F - 39.2 °F 93% 30.10 in 15.0 mi Calm Calm - N/A   Mostly Cloudy
9:15 PM 39.2 °F - 37.4 °F 93% 30.10 in 1.0 mi Calm Calm - N/A   Mostly Cloudy
9:55 PM 39.2 °F - 37.4 °F 93% 30.10 in 5.0 mi Calm Calm - N/A   Partly Cloudy
10:15 PM 37.4 °F 34.9 °F 37.4 °F 100% 30.10 in 4.0 mi East 3.5 mph - N/A   Mostly Cloudy
10:35 PM 39.2 °F - 39.2 °F 100% 30.10 in 5.0 mi Calm Calm - N/A   Overcast
10:55 PM 39.2 °F - 39.2 °F 100% 30.10 in 5.0 mi Calm Calm - N/A   Overcast
11:15 PM 39.2 °F - 39.2 °F 100% 30.10 in 7.0 mi Calm Calm - N/A   Overcast
11:35 PM 39.2 °F - 37.4 °F 93% 30.10 in 7.0 mi Calm Calm - N/A   Overcast
11:55 PM 41.0 °F - 39.2 °F 93% 30.10 in 8.0 mi Calm Calm - N/A   Overcast